Regional Weather Roundup
Issued by NWS

Home | Current Version | Previous Version | Text Only | Print | Product List | Glossary Off
Versions: 1 2 3 4 5 6 7 8 9 10 11 12 13 14 15 16 17 18 19 20 21 22 23 24 25 26 27 28 29 30 31 32 33 34 35 36 37 38 39 40 41 42 43 44 45 46 47 48 49 50

000
ASUS43 KMKX 230259
RWRWI

WISCONSIN REGIONAL WEATHER ROUNDUP
NATIONAL WEATHER SERVICE MILWAUKEE/SULLIVAN WI
900 PM CST WED NOV 22 2017

NOTE: "FAIR" INDICATES FEW OR NO CLOUDS BELOW 12,000 FEET WITH NO
SIGNIFICANT WEATHER AND/OR OBSTRUCTIONS TO VISIBILITY.

WIZ001-002-006>008-014>016-023>028-230400-
NORTHWEST WISCONSIN

CITY           SKY/WX    TMP DP  RH WIND       PRES   REMARKS
SUPERIOR ARPT  CLOUDY    23  21  93 SW5       30.04F FOG     WCI  17
ASHLAND        LGT SNOW  23  18  81 S10       30.05S WCI  12
HAYWARD        LGT SNOW  23  19  85 S6        30.04R FOG     WCI  16
SIREN          CLOUDY    25  19  80 SE3       30.03S
CUMBERLAND     CLOUDY    23  19  86 S7        30.02S WCI  15
RICE LAKE      FLURRIES  25  19  80 S7        30.05F WCI  17
CHETEK         FLURRIES  25  18  76 S6        30.05R WCI  18
LADYSMITH      CLOUDY    24  19  81 S3        30.07R
EAU CLAIRE     NOT AVBL
MENOMONIE      CLOUDY    29  17  59 SE7       30.04F WCI  22
NEW RICHMOND   CLOUDY    28  17  62 S7        30.02F WCI  21
OSCEOLA        FLURRIES  29  19  67 SE6       30.04F WCI  22
$$

WIZ003>005-009-010-017-018-230400-
NORTH CENTRAL WISCONSIN

CITY           SKY/WX    TMP DP  RH WIND       PRES   REMARKS
MANITOWISH WTR CLOUDY    21  15  76 SW6       30.01F WCI  14
ARBOR VITAE    CLOUDY    23  16  73 SW6       30.01F WCI  16
WOODRUFF       CLOUDY    23  16  73 SW6       30.01F WCI  16
RHINELANDER    CLOUDY    23  14  68 SW8       30.03S WCI  14
EAGLE RIVER    CLOUDY    23  13  66 SW9       30.01S WCI  13
LAND O LAKES   CLOUDY    23  14  67 SW6       30.02S WCI  16
PHILLIPS       LGT SNOW  21  19  95 S5        30.03S WCI  14
TOMAHAWK       CLOUDY    22  15  73 CALM      30.05S
MEDFORD        CLOUDY    23  17  78 S6        30.04S WCI  15
MERRILL        CLOUDY    24  16  69 SW5       30.07S WCI  19
$$

WIZ029-030-035-036-043>047-230400-
CENTRAL WISCONSIN

CITY           SKY/WX    TMP DP  RH WIND       PRES   REMARKS
WAUSAU         CLOUDY    25  16  68 SW9       30.06S WCI  15
MOSINEE        FLURRIES  25  16  68 S7        30.08S WCI  17
MARSHFIELD     CLOUDY    26  16  65 S8        30.06S WCI  18
STEVENS POINT  CLOUDY    25  15  66 SW7       30.10S WCI  17
WAUPACA        CLOUDY    31  15  52 S6        30.12S WCI  25
WAUTOMA        NOT AVBL
WISC RAPIDS    CLOUDY    28  16  60 SW6       30.10F WCI  22
CAMP DOUGLAS   CLOUDY    30  15  55 SW7       30.10S WCI  23
$$

WIZ011>013-019>022-031-037>040-048>050-230400-
NORTHEAST WISCONSIN

CITY           SKY/WX    TMP DP  RH WIND       PRES   REMARKS
ANTIGO         CLOUDY    23  14  68 SW8       30.05S WCI  14
SHAWANO        MOCLDY    30  16  56 CALM      30.10S
OCONTO         CLOUDY    28  15  58 SW6       30.11F WCI  22
STURGEON BAY   CLOUDY    28  18  66 S7        30.12F WCI  21
GREEN BAY      CLOUDY    30  19  63 SW8       30.12S WCI  22
MANITOWOC      CLOUDY    30  18  60 SW7       30.13F WCI  23
APPLETON       CLOUDY    28  14  54 SW8       30.10F WCI  20
CLINTONVILLE   CLOUDY    28  16  59 SW7       30.11S WCI  21
OSHKOSH        CLOUDY    30  18  60 SW7       30.12S WCI  23
$$

WIZ032>034-041-042-053>061-230400-
SOUTHWEST WISCONSIN

CITY           SKY/WX    TMP DP  RH WIND       PRES   REMARKS
LA CROSSE      CLOUDY    33  17  51 S13       30.09F WCI  24
SPARTA         CLOUDY    30  17  59 SW3       30.12R
VIROQUA        CLOUDY    29  19  63 S7        30.10R WCI  22
BOSCOBEL       CLOUDY    33  15  47 SW8       30.14S WCI  26
PRAIRIE DU CHI CLOUDY    33  14  46 SE5       30.12F WCI  28
PLATTEVILLE    CLOUDY    31  19  61 S12       30.14S WCI  22
$$

WIZ056-057-062-063-064-067-068-230400-
SOUTH CENTRAL WISCONSIN

CITY           SKY/WX    TMP DP  RH WIND       PRES   REMARKS
REEDSBURG      CLOUDY    30  16  55 S7        30.12F WCI  23
BARABOO/DELLS  CLOUDY    30  15  53 S8        30.12S WCI  22
LONE ROCK      NOT AVBL
MINERAL POINT  PTCLDY    32  19  59 S9        30.12F WCI  24
MADISON        CLOUDY    31  16  54 S9        30.14F WCI  23
MIDDLETON      CLOUDY    32  17  54 S9        30.14S WCI  24
WATERTOWN      CLOUDY    30  18  60 S9        30.14F WCI  22
MONROE         CLOUDY    30  19  64 S12       30.13F WCI  21
JANESVILLE     CLOUDY    32  19  59 SW8       30.15F WCI  25
$$

WIZ051-052-058>065-066-070>072-230400-
SOUTHEAST WISCONSIN

CITY           SKY/WX    TMP DP  RH WIND       PRES   REMARKS
MILWAUKEE      CLOUDY    32  18  56 SW8       30.17F WCI  25
WAUKESHA       CLOUDY    28  16  59 S7        30.16F WCI  21
MILWAUKEE/TIMM CLOUDY    30  14  51 SW9       30.17F WCI  22
RACINE         CLOUDY    31  18  58 SW8       30.18F WCI  23
BURLINGTON     CLOUDY    32  25  74 S9        30.17F WCI  24
KENOSHA        CLOUDY    31  18  58 SW9       30.17F WCI  23
FOND DU LAC    CLOUDY    31  16  54 SW10      30.13F WCI  22
SHEBOYGAN      CLOUDY    30  18  60 SW8       30.13F WCI  22
WEST BEND      CLOUDY    30  18  59 SW7       30.14F WCI  23
JUNEAU         CLOUDY    29  18  63 S9        30.15S WCI  21
$$

LSZ147-162-230400-
LAKE SUPERIOR

STATION/POSITION TIME  TEMP    WIND        PRES    WAVE
                       AIR SEA DIR/SP/G            HT/PER
                 (UTC) (F)     (DEG/KT/KT) (MB)    (FT/S)
DEVILS ISLAND    0200   26     220/ 13/ 17 1017.7F
SAXON HARBOR     0240   25     200/  8/ 12 1016.9F
$$

LMZ867-665-643>646-230400-
LAKE MICHIGAN

STATION/POSITION TIME  TEMP    WIND        PRES    WAVE
                       AIR SEA DIR/SP/G            HT/PER
                 (UTC) (F)     (DEG/KT/KT) (MB)    (FT/S)
N MID LAKE BUOY  0150   33 47  230/ 17/ 21 1021.0F   3/ 4
NORTHPORT PIER   0240   28     190/  3/  6 1019.3F
KEWAUNEE LAKESHO 0230   30     220/  5/ 10 1019.3F
SHEBOYGAN LAKESH 0200   31     200/ 12/ 13 1021.7F
PORT WASHINGTON  0240   32     230/  5/  9 1022.0F
MILWAUKEE LAKESH 0230   32     220/ 10/ 12   N/A
S MID LAKE BUOY  0150   35 47  230/ 12/ 16 1023.1F   2/ 6
KENOSHA   LAKESH 0200   31     210/  6/ 10 1022.7
$$

TC  - TEMPERATURE IN CELSIUS
VSB - VISIBILITY IN STATUTE MILES
WCI - WIND CHILL INDEX
HX  - HEAT INDEX




USA.gov is the U.S. government's official web portal to all federal, state and local government web resources and services.